Location: Champignolles
(47.0543°N, 4.5663°E)
Time: 14:15:23
(UTC+00:00)

Cosmos 1812 - Pass Details

Date: 30 November 2020
Orbit: 517 x 520 km, 82.5° (Epoch: 28 January)

Event Time Altitude Azimuth Distance (km) Brightness Sun altitude
Rises 17:45:37 0° 170° (S) 2,625 6.3 -18.2°
Reaches altitude 10° 17:47:48 10° 163° (SSE) 1,743 5.3 -18.6°
Enters shadow 17:50:05 29° 139° (SE) 963 3.8 -19.0°
